| time (UTC) | temp C | wind direction | speed KPH | gust KPH | rain 1hr cm | rain 24hr cm | rain mn cm | humidity % | barometer mb |
| 20260510071828 | 23 | 189 | 11.3 | 20.9 | 0.00 | 0.00 | 0.00 | 63 | 1007.8 |
| 20260510070324 | 23 | 204 | 9.7 | 25.7 | 0.00 | 0.00 | 0.00 | 62 | 1008.0 |
| 20260510064818 | 23 | 214 | 12.9 | 25.7 | 0.00 | 0.00 | 0.00 | 60 | 1007.9 |
| 20260510063351 | 23 | 221 | 12.9 | 22.5 | 0.00 | 0.00 | 0.00 | 59 | 1008.0 |
| 20260510061844 | 22 | 195 | 11.3 | 20.9 | 0.00 | 0.00 | 0.00 | 60 | 1008.1 |
| 20260510060331 | 23 | 216 | 9.7 | 17.7 | 0.00 | 0.00 | 0.00 | 60 | 1008.1 |
| 20260510054825 | 22 | 199 | 11.3 | 20.9 | 0.00 | 0.00 | 0.00 | 61 | 1008.1 |
| 20260510053317 | 23 | 216 | 8.0 | 20.9 | 0.00 | 0.00 | 0.00 | 60 | 1008.1 |
| 20260510051827 | 23 | 215 | 11.3 | 19.3 | 0.00 | 0.00 | 0.00 | 58 | 1008.1 |
| 20260510050319 | 23 | 191 | 9.7 | 20.9 | 0.00 | 0.00 | 0.00 | 57 | 1008.1 |
| 20260510044824 | 23 | 188 | 11.3 | 22.5 | 0.00 | 0.00 | 0.00 | 57 | 1008.2 |
| 20260510043318 | 23 | 186 | 9.7 | 17.7 | 0.00 | 0.00 | 0.00 | 56 | 1008.2 |
| 20260510041830 | 23 | 200 | 8.0 | 19.3 | 0.00 | 0.00 | 0.00 | 56 | 1008.2 |
| 20260510040325 | 24 | 198 | 9.7 | 20.9 | 0.00 | 0.00 | 0.00 | 53 | 1008.2 |
| 20260510034819 | 24 | 215 | 8.0 | 17.7 | 0.00 | 0.00 | 0.00 | 52 | 1008.2 |
| 20260510033317 | 24 | 193 | 8.0 | 19.3 | 0.00 | 0.00 | 0.00 | 50 | 1008.2 |
| 20260510031828 | 24 | 200 | 8.0 | 19.3 | 0.00 | 0.00 | 0.00 | 47 | 1008.2 |
| 20260510030323 | 25 | 188 | 8.0 | 16.1 | 0.00 | 0.00 | 0.00 | 45 | 1008.2 |
| 20260510024816 | 25 | 202 | 4.8 | 9.7 | 0.00 | 0.00 | 0.00 | 43 | 1008.2 |
| 20260510023330 | 26 | 188 | 4.8 | 17.7 | 0.00 | 0.00 | 0.00 | 40 | 1008.0 |
| 20260510021821 | 26 | 184 | 4.8 | 12.9 | 0.00 | 0.00 | 0.00 | 39 | 1007.8 |
| 20260510020315 | 27 | 192 | 4.8 | 12.9 | 0.00 | 0.00 | 0.00 | 37 | 1007.7 |
| 20260510014849 | 27 | 194 | 4.8 | 9.7 | 0.00 | 0.00 | 0.00 | 35 | 1007.4 |
| 20260510013321 | 28 | 190 | 4.8 | 12.9 | 0.00 | 0.00 | 0.00 | 33 | 1007.3 |
| 20260510011834 | 29 | 188 | 3.2 | 8.0 | 0.00 | 0.00 | 0.00 | 31 | 1007.3 |
| 20260510010324 | 30 | 184 | 3.2 | 9.7 | 0.00 | 0.00 | 0.00 | 29 | 1007.3 |
| 20260510004819 | 30 | 203 | 4.8 | 11.3 | 0.00 | 0.00 | 0.00 | 27 | 1007.3 |
| 20260510003332 | 31 | 197 | 4.8 | 12.9 | 0.00 | 0.00 | 0.00 | 27 | 1007.3 |
| 20260510001846 | 31 | 191 | 6.4 | 14.5 | 0.00 | 0.00 | 0.00 | 25 | 1007.3 |
| 20260510000314 | 32 | 176 | 4.8 | 12.9 | 0.00 | 0.00 | 0.00 | 24 | 1007.3 |
| 20260509234827 | 32 | 192 | 8.0 | 12.9 | 0.00 | 0.00 | 0.00 | 25 | 1007.4 |
| 20260509233342 | 32 | 192 | 3.2 | 11.3 | 0.00 | 0.00 | 0.00 | 25 | 1007.4 |
| 20260509231831 | 32 | 212 | 6.4 | 20.9 | 0.00 | 0.00 | 0.00 | 24 | 1007.5 |
| 20260509230341 | 32 | 195 | 6.4 | 16.1 | 0.00 | 0.00 | 0.00 | 24 | 1007.5 |
| 20260509224827 | 32 | 200 | 6.4 | 14.5 | 0.00 | 0.00 | 0.00 | 24 | 1007.6 |
| 20260509223319 | 33 | 214 | 8.0 | 14.5 | 0.00 | 0.00 | 0.00 | 24 | 1007.6 |
| 20260509221815 | 33 | 190 | 4.8 | 16.1 | 0.00 | 0.00 | 0.00 | 24 | 1007.6 |
| 20260509220328 | 33 | 193 | 8.0 | 19.3 | 0.00 | 0.00 | 0.00 | 24 | 1007.6 |
| 20260509214838 | 32 | 184 | 6.4 | 22.5 | 0.00 | 0.00 | 0.00 | 28 | 1007.6 |
| 20260509213331 | 33 | 167 | 6.4 | 14.5 | 0.00 | 0.00 | 0.00 | 28 | 1007.8 |
| 20260509211822 | 33 | 196 | 8.0 | 20.9 | 0.00 | 0.00 | 0.00 | 26 | 1008.0 |
| 20260509210316 | 32 | 190 | 6.4 | 14.5 | 0.00 | 0.00 | 0.00 | 28 | 1008.2 |
| 20260509204830 | 33 | 207 | 8.0 | 19.3 | 0.00 | 0.00 | 0.00 | 28 | 1008.4 |
| 20260509203324 | 32 | 221 | 6.4 | 11.3 | 0.00 | 0.00 | 0.00 | 29 | 1008.7 |
| 20260509201814 | 32 | 222 | 4.8 | 19.3 | 0.00 | 0.00 | 0.00 | 30 | 1008.8 |
| 20260509200348 | 32 | 188 | 3.2 | 11.3 | 0.00 | 0.00 | 0.00 | 28 | 1009.0 |
| 20260509194824 | 32 | 208 | 8.0 | 17.7 | 0.00 | 0.00 | 0.00 | 29 | 1009.2 |
| 20260509193317 | 32 | 219 | 6.4 | 16.1 | 0.00 | 0.00 | 0.00 | 32 | 1009.5 |
| 20260509191816 | 32 | 181 | 6.4 | 12.9 | 0.00 | 0.00 | 0.00 | 35 | 1009.6 |
| 20260509190328 | 32 | 194 | 3.2 | 16.1 | 0.00 | 0.00 | 0.00 | 37 | 1009.7 |
| 20260509184824 | 31 | 188 | 8.0 | 11.3 | 0.00 | 0.00 | 0.00 | 36 | 1009.8 |
| 20260509183353 | 31 | 191 | 3.2 | 16.1 | 0.00 | 0.00 | 0.00 | 38 | 1010.0 |
| 20260509181827 | 30 | 234 | 9.7 | 12.9 | 0.00 | 0.00 | 0.00 | 38 | 1010.2 |
| 20260509180318 | 30 | 182 | 9.7 | 17.7 | 0.00 | 0.00 | 0.00 | 39 | 1010.4 |
| 20260509174832 | 30 | 226 | 8.0 | 17.7 | 0.00 | 0.00 | 0.00 | 40 | 1010.6 |
| 20260509173324 | 30 | 177 | 6.4 | 16.1 | 0.00 | 0.00 | 0.00 | 42 | 1010.7 |
| 20260509171819 | 29 | 207 | 4.8 | 12.9 | 0.00 | 0.00 | 0.00 | 44 | 1011.0 |
| 20260509170330 | 28 | 221 | 9.7 | 12.9 | 0.00 | 0.00 | 0.00 | 45 | 1011.1 |
| 20260509164825 | 28 | 231 | 8.0 | 12.9 | 0.00 | 0.00 | 0.00 | 47 | 1011.1 |
| 20260509163318 | 27 | 224 | 9.7 | 14.5 | 0.00 | 0.00 | 0.00 | 50 | 1011.2 |
| 20260509161832 | 27 | 232 | 8.0 | 24.1 | 0.00 | 0.00 | 0.00 | 52 | 1011.2 |
| 20260509160326 | 26 | 216 | 9.7 | 16.1 | 0.00 | 0.00 | 0.00 | 56 | 1011.1 |
| 20260509154819 | 26 | 222 | 8.0 | 16.1 | 0.00 | 0.00 | 0.00 | 57 | 1011.1 |
| 20260509153328 | 25 | 221 | 8.0 | 16.1 | 0.00 | 0.00 | 0.00 | 61 | 1011.2 |
| 20260509151841 | 25 | 221 | 8.0 | 12.9 | 0.00 | 0.00 | 0.00 | 62 | 1011.2 |
| 20260509150324 | 24 | 232 | 6.4 | 20.9 | 0.00 | 0.00 | 0.00 | 65 | 1011.2 |
| 20260509144817 | 23 | 200 | 6.4 | 16.1 | 0.00 | 0.00 | 0.00 | 67 | 1011.3 |
| 20260509143328 | 22 | 212 | 4.8 | 14.5 | 0.00 | 0.00 | 0.00 | 73 | 1011.5 |
| 20260509141821 | 21 | 219 | 4.8 | 16.1 | 0.00 | 0.00 | 0.00 | 77 | 1011.5 |
| 20260509140331 | 21 | 215 | 6.4 | 14.5 | 0.00 | 0.00 | 0.00 | 79 | 1011.6 |
| 20260509134822 | 20 | 229 | 6.4 | 12.9 | 0.00 | 0.00 | 0.00 | 83 | 1011.6 |
| 20260509133318 | 19 | 226 | 9.7 | 12.9 | 0.00 | 0.00 | 0.00 | 85 | 1011.3 |
| 20260509131832 | 18 | 225 | 8.0 | 16.1 | 0.00 | 0.00 | 0.00 | 86 | 1011.4 |
| 20260509130321 | 18 | 216 | 8.0 | 14.5 | 0.00 | 0.00 | 0.00 | 86 | 1011.3 |
| 20260509124818 | 18 | 206 | 9.7 | 19.3 | 0.00 | 0.00 | 0.00 | 86 | 1011.1 |
| 20260509123329 | 18 | 212 | 9.7 | 14.5 | 0.00 | 0.00 | 0.00 | 86 | 1011.2 |
| 20260509121845 | 17 | 217 | 9.7 | 17.7 | 0.00 | 0.00 | 0.00 | 86 | 1011.0 |
| 20260509120316 | 16 | 196 | 8.0 | 16.1 | 0.00 | 0.00 | 0.00 | 85 | 1010.8 |
| 20260509114828 | 16 | 187 | 11.3 | 16.1 | 0.00 | 0.00 | 0.00 | 85 | 1010.8 |
| 20260509113324 | 16 | 196 | 8.0 | 14.5 | 0.00 | 0.00 | 0.00 | 85 | 1010.4 |
| 20260509111818 | 16 | 208 | 8.0 | 16.1 | 0.00 | 0.00 | 0.00 | 84 | 1010.2 |
| 20260509110351 | 17 | 199 | 6.4 | 20.9 | 0.00 | 0.00 | 0.00 | 84 | 1010.0 |
| 20260509104825 | 17 | 199 | 8.0 | 14.5 | 0.00 | 0.00 | 0.00 | 83 | 1010.0 |
| 20260509103319 | 17 | 184 | 6.4 | 14.5 | 0.00 | 0.00 | 0.00 | 82 | 1010.2 |
| 20260509101830 | 17 | 196 | 8.0 | 17.7 | 0.00 | 0.00 | 0.00 | 81 | 1010.2 |
| 20260509100320 | 17 | 187 | 6.4 | 12.9 | 0.00 | 0.00 | 0.00 | 79 | 1010.4 |
| 20260509094832 | 17 | 194 | 8.0 | 14.5 | 0.00 | 0.00 | 0.00 | 78 | 1010.4 |
| 20260509093321 | 18 | 191 | 4.8 | 11.3 | 0.00 | 0.00 | 0.00 | 77 | 1010.6 |
| 20260509091817 | 18 | 186 | 6.4 | 16.1 | 0.00 | 0.00 | 0.00 | 76 | 1010.6 |
| 20260509090314 | 18 | 207 | 6.4 | 12.9 | 0.00 | 0.00 | 0.00 | 74 | 1010.6 |
| 20260509084829 | 19 | 187 | 6.4 | 11.3 | 0.00 | 0.00 | 0.00 | 72 | 1010.6 |
| 20260509083325 | 19 | 195 | 4.8 | 17.7 | 0.00 | 0.00 | 0.00 | 75 | 1010.8 |
| 20260509081839 | 19 | 136 | 3.2 | 12.9 | 0.00 | 0.00 | 0.00 | 79 | 1011.3 |
| 20260509080316 | 19 | 80 | 4.8 | 14.5 | 0.00 | 0.00 | 0.00 | 82 | 1011.5 |
| 20260509074827 | 19 | 121 | 9.7 | 24.1 | 0.00 | 0.00 | 0.00 | 84 | 1011.7 |
| 20260509073324 | 20 | 92 | 9.7 | 16.1 | 0.00 | 0.00 | 0.00 | 85 | 1011.6 |